| time (UTC) | temp F | wind direction | speed knots | gust knots | rain 1hr in | rain 24hr in | rain mn in | humidity % | barometer mb |
| 20260901164807 | 92 | 294 | 0.0 | 4.3 | 0.00 | 0.00 | 0.00 | 77 | 1021.9 |
| 20260901164302 | 91 | 264 | 6.1 | 10.4 | 0.00 | 0.00 | 0.00 | 76 | 1021.9 |
| 20260901163756 | 91 | 249 | 8.7 | 10.4 | 0.00 | 0.00 | 0.00 | 76 | 1022.0 |
| 20260901163251 | 91 | 221 | 3.5 | 9.6 | 0.00 | 0.00 | 0.00 | 76 | 1022.2 |
| 20260901162746 | 91 | 206 | 0.9 | 8.7 | 0.00 | 0.00 | 0.00 | 76 | 1022.0 |
| 20260901162245 | 89 | 277 | 7.8 | 13.0 | 0.00 | 0.00 | 0.00 | 76 | 1022.2 |
| 20260901161744 | 90 | 257 | 8.7 | 12.2 | 0.00 | 0.00 | 0.00 | 76 | 1022.2 |
| 20260901161239 | 91 | 226 | 6.1 | 10.4 | 0.00 | 0.00 | 0.00 | 76 | 1022.3 |
| 20260901160735 | 91 | 195 | 5.2 | 7.8 | 0.00 | 0.00 | 0.00 | 76 | 1022.3 |
| 20260901160231 | 90 | 180 | 0.9 | 10.4 | 0.00 | 0.00 | 0.00 | 76 | 1022.0 |
| 20260901155729 | 90 | 74 | 1.7 | 9.6 | 0.00 | 0.00 | 0.00 | 76 | 1022.2 |
| 20260901155224 | 90 | 205 | 5.2 | 11.3 | 0.00 | 0.00 | 0.00 | 76 | 1022.3 |
| 20260901154720 | 89 | 215 | 3.5 | 8.7 | 0.00 | 0.00 | 0.00 | 76 | 1022.3 |
| 20260901154215 | 89 | 236 | 2.6 | 7.8 | 0.00 | 0.00 | 0.00 | 76 | 1022.3 |
| 20260901153710 | 88 | 251 | 4.3 | 13.0 | 0.00 | 0.00 | 0.00 | 76 | 1022.3 |
| 20260901153203 | 89 | 220 | 6.1 | 7.8 | 0.00 | 0.00 | 0.00 | 76 | 1022.2 |
| 20260901152658 | 88 | 235 | 4.3 | 9.6 | 0.00 | 0.00 | 0.00 | 76 | 1022.4 |
| 20260901152156 | 89 | 225 | 0.0 | 9.6 | 0.00 | 0.00 | 0.00 | 76 | 1022.3 |
| 20260901151653 | 88 | 165 | 0.9 | 11.3 | 0.00 | 0.00 | 0.00 | 76 | 1022.3 |
| 20260901151152 | 88 | 204 | 1.7 | 13.0 | 0.00 | 0.00 | 0.00 | 76 | 1022.0 |
| 20260901150651 | 88 | 228 | 5.2 | 10.4 | 0.00 | 0.00 | 0.00 | 76 | 1022.4 |
| 20260901150150 | 88 | 255 | 4.3 | 5.2 | 0.00 | 0.00 | 0.00 | 76 | 1022.2 |
| 20260901145647 | 88 | 247 | 2.6 | 6.1 | 0.00 | 0.00 | 0.00 | 76 | 1022.3 |
| 20260901145142 | 87 | 256 | 4.3 | 7.8 | 0.00 | 0.00 | 0.00 | 76 | 1022.5 |
| 20260901144638 | 88 | 218 | 3.5 | 6.1 | 0.00 | 0.00 | 0.00 | 76 | 1022.3 |
| 20260901144132 | 86 | 254 | 3.5 | 8.7 | 0.00 | 0.00 | 0.00 | 76 | 1022.2 |
| 20260901143628 | 87 | 280 | 2.6 | 7.0 | 0.00 | 0.00 | 0.00 | 76 | 1022.4 |
| 20260901143124 | 87 | 194 | 1.7 | 7.0 | 0.00 | 0.00 | 0.00 | 76 | 1022.3 |
| 20260901142620 | 86 | 185 | 1.7 | 7.0 | 0.00 | 0.00 | 0.00 | 76 | 1022.3 |
| 20260901142119 | 86 | 162 | 1.7 | 3.5 | 0.00 | 0.00 | 0.00 | 76 | 1022.4 |
| 20260901141614 | 85 | 195 | 0.0 | 7.0 | 0.00 | 0.00 | 0.00 | 76 | 1022.6 |
| 20260901141109 | 85 | 288 | 2.6 | 6.1 | 0.00 | 0.00 | 0.00 | 76 | 1022.2 |
| 20260901140608 | 84 | 197 | 4.3 | 7.8 | 0.00 | 0.00 | 0.00 | 76 | 1022.4 |
| 20260901140106 | 84 | 204 | 1.7 | 7.8 | 0.00 | 0.00 | 0.00 | 76 | 1022.4 |
| 20260901135601 | 84 | 199 | 2.6 | 3.5 | 0.00 | 0.00 | 0.00 | 76 | 1022.2 |
| 20260901135056 | 83 | 151 | 0.9 | 5.2 | 0.00 | 0.00 | 0.00 | 75 | 1022.3 |
| 20260901134552 | 83 | 255 | 0.0 | 3.5 | 0.00 | 0.00 | 0.00 | 75 | 1022.6 |
| 20260901134047 | 83 | 157 | 0.9 | 5.2 | 0.00 | 0.00 | 0.00 | 75 | 1022.5 |
| 20260901133546 | 82 | 206 | 0.0 | 3.5 | 0.00 | 0.00 | 0.00 | 75 | 1022.4 |
| 20260901133045 | 82 | 209 | 4.3 | 4.3 | 0.00 | 0.00 | 0.00 | 75 | 1022.3 |
| 20260901132544 | 82 | 225 | 1.7 | 2.6 | 0.00 | 0.00 | 0.00 | 75 | 1022.4 |
| 20260901132038 | 81 | 212 | 2.6 | 4.3 | 0.00 | 0.00 | 0.00 | 75 | 1022.2 |
| 20260901131533 | 80 | 151 | 1.7 | 3.5 | 0.00 | 0.00 | 0.00 | 75 | 1022.3 |
| 20260901131028 | 80 | 194 | 2.6 | 4.3 | 0.00 | 0.00 | 0.00 | 75 | 1022.4 |
| 20260901130528 | 79 | 279 | 1.7 | 3.5 | 0.00 | 0.00 | 0.00 | 75 | 1022.3 |
| 20260901130027 | 79 | 213 | 1.7 | 3.5 | 0.00 | 0.00 | 0.00 | 75 | 1022.2 |
| 20260901125525 | 79 | 213 | 2.6 | 3.5 | 0.00 | 0.00 | 0.00 | 75 | 1022.3 |
| 20260901125021 | 78 | 201 | 1.7 | 2.6 | 0.00 | 0.00 | 0.00 | 75 | 1021.9 |
| 20260901124516 | 78 | 206 | 2.6 | 2.6 | 0.00 | 0.00 | 0.00 | 75 | 1022.2 |
| 20260901124015 | 77 | 215 | 0.9 | 1.7 | 0.00 | 0.00 | 0.00 | 75 | 1022.2 |
| 20260901123510 | 77 | 203 | 0.9 | 1.7 | 0.00 | 0.00 | 0.00 | 75 | 1022.0 |
| 20260901123009 | 74 | 192 | 0.0 | 0.0 | 0.00 | 0.00 | 0.00 | 74 | 1022.0 |
| 20260901122503 | 74 | 192 | 0.0 | 0.0 | 0.00 | 0.00 | 0.00 | 74 | 1022.0 |
| 20260901122002 | 74 | 192 | 0.0 | 0.0 | 0.00 | 0.00 | 0.00 | 74 | 1022.0 |
| 20260901121457 | 74 | 192 | 0.0 | 0.0 | 0.00 | 0.00 | 0.00 | 74 | 1021.7 |
| 20260901120947 | 74 | 192 | 0.0 | 0.0 | 0.00 | 0.00 | 0.00 | 74 | 1021.8 |
| 20260901120446 | 74 | 192 | 0.0 | 0.0 | 0.00 | 0.00 | 0.00 | 74 | 1021.7 |
| 20260901115942 | 74 | 192 | 0.0 | 0.0 | 0.00 | 0.00 | 0.00 | 74 | 1022.0 |
| 20260901115443 | 74 | 192 | 0.0 | 0.0 | 0.00 | 0.00 | 0.00 | 74 | 1021.8 |
| 20260901114940 | 74 | 192 | 0.0 | 0.0 | 0.00 | 0.00 | 0.00 | 74 | 1021.8 |
| 20260901114435 | 75 | 206 | 1.7 | 2.6 | 0.00 | 0.00 | 0.00 | 74 | 1021.6 |
| 20260901113933 | 75 | 206 | 1.7 | 2.6 | 0.00 | 0.00 | 0.00 | 74 | 1021.6 |
| 20260901113433 | 75 | 206 | 1.7 | 2.6 | 0.00 | 0.00 | 0.00 | 74 | 1021.6 |
| 20260901112928 | 75 | 206 | 1.7 | 2.6 | 0.00 | 0.00 | 0.00 | 74 | 1021.5 |
| 20260901112423 | 0 | 0.0 | 0.0 | 0.00 | 0.00 | 0.00 | 1021.3 | ||
| 20260901111918 | 74 | 240 | 0.0 | 0.0 | 0.00 | 0.00 | 0.00 | 74 | 1021.4 |
| 20260901111416 | 74 | 240 | 0.0 | 0.0 | 0.00 | 0.00 | 0.00 | 74 | 1021.2 |
| 20260901110915 | 74 | 240 | 0.0 | 0.0 | 0.00 | 0.00 | 0.00 | 74 | 1021.3 |
| 20260901110411 | 74 | 240 | 0.0 | 0.0 | 0.00 | 0.00 | 0.00 | 74 | 1021.1 |
| 20260901105907 | 74 | 240 | 0.0 | 0.0 | 0.00 | 0.00 | 0.00 | 74 | 1021.2 |
| 20260901105402 | 74 | 240 | 0.0 | 0.0 | 0.00 | 0.00 | 0.00 | 74 | 1021.1 |
| 20260901104858 | 74 | 240 | 0.0 | 0.0 | 0.00 | 0.00 | 0.00 | 74 | 1021.1 |
| 20260901104353 | 74 | 240 | 0.0 | 0.0 | 0.00 | 0.00 | 0.00 | 74 | 1021.0 |
| 20260901103849 | 74 | 240 | 0.0 | 0.0 | 0.00 | 0.00 | 0.00 | 74 | 1021.0 |
| 20260901103348 | 74 | 240 | 0.0 | 0.0 | 0.00 | 0.00 | 0.00 | 74 | 1021.1 |
| 20260901102843 | 74 | 240 | 0.0 | 0.0 | 0.00 | 0.00 | 0.00 | 74 | 1021.2 |
| 20260901102337 | 74 | 240 | 0.0 | 0.0 | 0.00 | 0.00 | 0.00 | 74 | 1021.0 |
| 20260901101833 | 75 | 246 | 1.7 | 1.7 | 0.00 | 0.00 | 0.00 | 74 | 1020.8 |
| 20260901101333 | 75 | 246 | 1.7 | 1.7 | 0.00 | 0.00 | 0.00 | 74 | 1021.0 |
| 20260901100827 | 75 | 246 | 1.7 | 1.7 | 0.00 | 0.00 | 0.00 | 74 | 1021.0 |
| 20260901100322 | 75 | 246 | 1.7 | 1.7 | 0.00 | 0.00 | 0.00 | 74 | 1021.0 |
| 20260901095821 | 75 | 246 | 1.7 | 1.7 | 0.00 | 0.00 | 0.00 | 74 | 1021.1 |
| 20260901095318 | 75 | 240 | 0.0 | 0.0 | 0.00 | 0.00 | 0.00 | 74 | 1020.9 |
| 20260901094813 | 75 | 240 | 0.0 | 0.0 | 0.00 | 0.00 | 0.00 | 74 | 1020.8 |
| 20260901094308 | 75 | 240 | 0.0 | 0.0 | 0.00 | 0.00 | 0.00 | 74 | 1020.9 |
| 20260901093803 | 75 | 240 | 0.0 | 0.0 | 0.00 | 0.00 | 0.00 | 74 | 1020.8 |
| 20260901093301 | 75 | 240 | 0.0 | 0.0 | 0.00 | 0.00 | 0.00 | 74 | 1020.9 |
| 20260901092757 | 75 | 240 | 0.0 | 0.0 | 0.00 | 0.00 | 0.00 | 74 | 1020.8 |
| 20260901092254 | 75 | 240 | 0.0 | 0.0 | 0.00 | 0.00 | 0.00 | 74 | 1020.9 |
| 20260901091748 | 75 | 194 | 0.0 | 0.0 | 0.00 | 0.00 | 0.00 | 74 | 1020.8 |
| 20260901091243 | 75 | 216 | 0.0 | 0.0 | 0.00 | 0.00 | 0.00 | 74 | 1020.9 |
| 20260901090738 | 75 | 227 | 2.6 | 2.6 | 0.00 | 0.00 | 0.00 | 74 | 1020.7 |
| 20260901090233 | 75 | 254 | 1.7 | 1.7 | 0.00 | 0.00 | 0.00 | 74 | 1020.8 |
| 20260901085729 | 72 | 4 | 1.7 | 1.7 | 0.00 | 0.00 | 0.00 | 74 | 1020.9 |
| 20260901085224 | 72 | 4 | 1.7 | 1.7 | 0.00 | 0.00 | 0.00 | 74 | 1020.6 |
| 20260901084720 | 72 | 4 | 1.7 | 1.7 | 0.00 | 0.00 | 0.00 | 74 | 1020.9 |
| 20260901084216 | 72 | 4 | 1.7 | 1.7 | 0.00 | 0.00 | 0.00 | 74 | 1020.5 |
| 20260901083711 | 72 | 352 | 1.7 | 1.7 | 0.00 | 0.00 | 0.00 | 74 | 1020.6 |
| 20260901083211 | 75 | 197 | 2.6 | 2.6 | 0.00 | 0.00 | 0.00 | 74 | 1020.8 |
| 20260901082709 | 75 | 197 | 2.6 | 2.6 | 0.00 | 0.00 | 0.00 | 74 | 1020.4 |
| 20260901082205 | 75 | 197 | 2.6 | 2.6 | 0.00 | 0.00 | 0.00 | 74 | 1020.6 |
| 20260901081701 | 75 | 197 | 2.6 | 2.6 | 0.00 | 0.00 | 0.00 | 74 | 1020.4 |
| 20260901081200 | 75 | 197 | 2.6 | 2.6 | 0.00 | 0.00 | 0.00 | 74 | 1020.5 |
| 20260901080655 | 75 | 182 | 2.6 | 2.6 | 0.00 | 0.00 | 0.00 | 74 | 1020.2 |
| 20260901080153 | 75 | 182 | 2.6 | 2.6 | 0.00 | 0.00 | 0.00 | 74 | 1020.2 |
| 20260901075648 | 77 | 186 | 0.0 | 2.6 | 0.00 | 0.00 | 0.00 | 75 | 1020.4 |
| 20260901075143 | 77 | 186 | 0.0 | 2.6 | 0.00 | 0.00 | 0.00 | 75 | 1020.4 |
| 20260901074642 | 77 | 186 | 0.0 | 2.6 | 0.00 | 0.00 | 0.00 | 75 | 1020.2 |
| 20260901074138 | 77 | 186 | 0.0 | 2.6 | 0.00 | 0.00 | 0.00 | 75 | 1020.3 |
| 20260901073634 | 77 | 186 | 0.0 | 2.6 | 0.00 | 0.00 | 0.00 | 75 | 1020.3 |
| 20260901073130 | 77 | 186 | 0.0 | 2.6 | 0.00 | 0.00 | 0.00 | 75 | 1020.2 |
| 20260901072625 | 77 | 186 | 0.0 | 2.6 | 0.00 | 0.00 | 0.00 | 75 | 1020.5 |
| 20260901072119 | 77 | 186 | 0.0 | 2.6 | 0.00 | 0.00 | 0.00 | 75 | 1020.3 |
| 20260901071614 | 77 | 186 | 0.0 | 2.6 | 0.00 | 0.00 | 0.00 | 75 | 1020.5 |
| 20260901071113 | 78 | 208 | 1.7 | 1.7 | 0.00 | 0.00 | 0.00 | 75 | 1020.6 |
| 20260901070607 | 78 | 208 | 1.7 | 1.7 | 0.00 | 0.00 | 0.00 | 75 | 1020.3 |
| 20260901065556 | 78 | 203 | 1.7 | 2.6 | 0.00 | 0.00 | 0.00 | 75 | 1020.2 |
| 20260901065051 | 77 | 165 | 0.9 | 0.9 | 0.00 | 0.00 | 0.00 | 75 | 1020.3 |
| 20260901064549 | 75 | 200 | 0.9 | 1.7 | 0.00 | 0.00 | 0.00 | 74 | 1020.2 |
| 20260901064045 | 75 | 249 | 0.0 | 0.0 | 0.00 | 0.00 | 0.00 | 74 | 1020.5 |
| 20260901063541 | 75 | 203 | 0.0 | 0.0 | 0.00 | 0.00 | 0.00 | 74 | 1020.5 |
| 20260901063037 | 75 | 203 | 0.0 | 0.0 | 0.00 | 0.00 | 0.00 | 74 | 1020.4 |
| 20260901062533 | 75 | 203 | 0.0 | 0.0 | 0.00 | 0.00 | 0.00 | 74 | 1020.6 |
| 20260901062028 | 76 | 195 | 0.0 | 0.0 | 0.00 | 0.00 | 0.00 | 74 | 1020.6 |
| 20260901061525 | 75 | 188 | 0.0 | 0.0 | 0.00 | 0.00 | 0.00 | 74 | 1020.7 |
| 20260901061024 | 75 | 188 | 0.0 | 0.0 | 0.00 | 0.00 | 0.00 | 74 | 1020.7 |
| 20260901060519 | 0 | 0.0 | 0.0 | 0.00 | 0.00 | 0.00 | 1020.7 | ||
| 20260901060014 | 0 | 0.0 | 0.0 | 0.00 | 0.00 | 0.00 | 1020.5 | ||
| 20260901055510 | 80 | 160 | 0.0 | 0.9 | 0.00 | 0.00 | 0.00 | 75 | 1020.7 |
| 20260901055007 | 80 | 160 | 0.0 | 0.9 | 0.00 | 0.00 | 0.00 | 75 | 1020.4 |
| 20260901054504 | 80 | 160 | 0.0 | 0.9 | 0.00 | 0.00 | 0.00 | 75 | 1020.8 |
| 20260901053959 | 80 | 160 | 0.0 | 0.9 | 0.00 | 0.00 | 0.00 | 75 | 1020.8 |
| 20260901053454 | 80 | 160 | 0.0 | 0.9 | 0.00 | 0.00 | 0.00 | 75 | 1020.5 |
| 20260901052950 | 80 | 160 | 0.0 | 0.9 | 0.00 | 0.00 | 0.00 | 75 | 1020.4 |
| 20260901052445 | 80 | 160 | 0.0 | 0.9 | 0.00 | 0.00 | 0.00 | 75 | 1020.5 |
| 20260901051944 | 80 | 160 | 0.0 | 0.9 | 0.00 | 0.00 | 0.00 | 75 | 1020.4 |
| 20260901051440 | 80 | 160 | 0.0 | 0.9 | 0.00 | 0.00 | 0.00 | 75 | 1020.5 |
| 20260901050939 | 80 | 160 | 0.0 | 0.9 | 0.00 | 0.00 | 0.00 | 75 | 1020.7 |
| 20260901050435 | 80 | 160 | 0.0 | 0.9 | 0.00 | 0.00 | 0.00 | 75 | 1020.5 |
| 20260901045935 | 80 | 160 | 0.0 | 0.9 | 0.00 | 0.00 | 0.00 | 75 | 1020.4 |
| 20260901045430 | 81 | 139 | 1.7 | 1.7 | 0.00 | 0.00 | 0.00 | 75 | 1020.4 |
| 20260901044925 | 81 | 139 | 1.7 | 1.7 | 0.00 | 0.00 | 0.00 | 75 | 1020.5 |
| 20260901044421 | 81 | 139 | 1.7 | 1.7 | 0.00 | 0.00 | 0.00 | 75 | 1020.5 |
| 20260901043917 | 81 | 139 | 1.7 | 1.7 | 0.00 | 0.00 | 0.00 | 75 | 1020.6 |
| 20260901043413 | 81 | 161 | 1.7 | 1.7 | 0.00 | 0.00 | 0.00 | 75 | 1020.4 |
| 20260901042912 | 80 | 220 | 1.7 | 1.7 | 0.00 | 0.00 | 0.00 | 75 | 1020.6 |
| 20260901042407 | 80 | 220 | 1.7 | 1.7 | 0.00 | 0.00 | 0.00 | 75 | 1020.7 |
| 20260901041902 | 80 | 220 | 1.7 | 1.7 | 0.00 | 0.00 | 0.00 | 75 | 1020.4 |
| 20260901041357 | 80 | 220 | 1.7 | 1.7 | 0.00 | 0.00 | 0.00 | 75 | 1020.5 |
| 20260901040857 | 0 | 0.0 | 0.0 | 0.00 | 0.00 | 0.00 | 1020.5 | ||
| 20260901040356 | 83 | 152 | 1.7 | 2.6 | 0.00 | 0.00 | 0.00 | 75 | 1020.4 |
| 20260901035855 | 83 | 152 | 1.7 | 2.6 | 0.00 | 0.00 | 0.00 | 75 | 1020.4 |
| 20260901035354 | 83 | 152 | 1.7 | 2.6 | 0.00 | 0.00 | 0.00 | 75 | 1020.5 |
| 20260901034853 | 83 | 152 | 1.7 | 2.6 | 0.00 | 0.00 | 0.00 | 75 | 1020.5 |
| 20260901034348 | 83 | 152 | 1.7 | 2.6 | 0.00 | 0.00 | 0.00 | 75 | 1020.5 |
| 20260901033843 | 83 | 152 | 1.7 | 2.6 | 0.00 | 0.00 | 0.00 | 75 | 1020.4 |
| 20260901033342 | 83 | 152 | 1.7 | 2.6 | 0.00 | 0.00 | 0.00 | 75 | 1020.5 |
| 20260901032841 | 83 | 152 | 1.7 | 2.6 | 0.00 | 0.00 | 0.00 | 75 | 1020.5 |
| 20260901032340 | 83 | 152 | 1.7 | 2.6 | 0.00 | 0.00 | 0.00 | 75 | 1020.4 |
| 20260901031836 | 83 | 152 | 1.7 | 2.6 | 0.00 | 0.00 | 0.00 | 75 | 1020.4 |
| 20260901031332 | 83 | 152 | 1.7 | 2.6 | 0.00 | 0.00 | 0.00 | 75 | 1020.2 |
| 20260901030831 | 83 | 152 | 1.7 | 2.6 | 0.00 | 0.00 | 0.00 | 75 | 1020.1 |
| 20260901030327 | 83 | 142 | 2.6 | 2.6 | 0.00 | 0.00 | 0.00 | 75 | 1020.2 |
| 20260901025826 | 83 | 150 | 1.7 | 2.6 | 0.00 | 0.00 | 0.00 | 75 | 1020.2 |
| 20260901025321 | 0 | 0.0 | 0.0 | 0.00 | 0.00 | 0.00 | 1020.2 | ||
| 20260901024816 | 0 | 0.0 | 0.0 | 0.00 | 0.00 | 0.00 | 1020.3 | ||
| 20260901024315 | 0 | 0.0 | 0.0 | 0.00 | 0.00 | 0.00 | 1020.0 | ||
| 20260901023813 | 0 | 0.0 | 0.0 | 0.00 | 0.00 | 0.00 | 1019.9 | ||
| 20260901023308 | 0 | 0.0 | 0.0 | 0.00 | 0.00 | 0.00 | 1020.0 | ||
| 20260901022804 | 0 | 0.0 | 0.0 | 0.00 | 0.00 | 0.00 | 1020.0 | ||
| 20260901022259 | 0 | 0.0 | 0.0 | 0.00 | 0.00 | 0.00 | 1019.9 | ||
| 20260901021754 | 0 | 0.0 | 0.0 | 0.00 | 0.00 | 0.00 | 1019.7 | ||
| 20260901021250 | 87 | 152 | 2.6 | 6.1 | 0.00 | 0.00 | 0.00 | 76 | 1019.9 |
| 20260901020745 | 87 | 152 | 2.6 | 6.1 | 0.00 | 0.00 | 0.00 | 76 | 1019.6 |
| 20260901020240 | 87 | 152 | 2.6 | 6.1 | 0.00 | 0.00 | 0.00 | 76 | 1019.6 |
| 20260901015734 | 87 | 152 | 2.6 | 6.1 | 0.00 | 0.00 | 0.00 | 76 | 1019.4 |
| 20260901015231 | 87 | 152 | 2.6 | 6.1 | 0.00 | 0.00 | 0.00 | 76 | 1019.7 |
| 20260901014730 | 87 | 152 | 2.6 | 6.1 | 0.00 | 0.00 | 0.00 | 76 | 1019.6 |
| 20260901014226 | 87 | 152 | 2.6 | 6.1 | 0.00 | 0.00 | 0.00 | 76 | 1019.4 |
| 20260901013721 | 87 | 152 | 2.6 | 6.1 | 0.00 | 0.00 | 0.00 | 76 | 1019.4 |
| 20260901013217 | 87 | 152 | 2.6 | 6.1 | 0.00 | 0.00 | 0.00 | 76 | 1019.3 |
| 20260901012712 | 87 | 152 | 2.6 | 6.1 | 0.00 | 0.00 | 0.00 | 76 | 1019.2 |
| 20260901012207 | 87 | 152 | 2.6 | 6.1 | 0.00 | 0.00 | 0.00 | 76 | 1019.1 |
| 20260901011703 | 87 | 152 | 2.6 | 7.8 | 0.00 | 0.00 | 0.00 | 76 | 1018.9 |
| 20260901011202 | 88 | 199 | 1.7 | 6.1 | 0.00 | 0.00 | 0.00 | 76 | 1018.9 |
| 20260901010656 | 88 | 199 | 1.7 | 6.1 | 0.00 | 0.00 | 0.00 | 76 | 1018.7 |
| 20260901010151 | 88 | 199 | 1.7 | 6.1 | 0.00 | 0.00 | 0.00 | 76 | 1018.7 |
| 20260901005650 | 88 | 199 | 1.7 | 6.1 | 0.00 | 0.00 | 0.00 | 76 | 1018.6 |
| 20260901005146 | 89 | 147 | 3.5 | 4.3 | 0.00 | 0.00 | 0.00 | 76 | 1018.8 |
| 20260901004645 | 89 | 152 | 6.1 | 6.1 | 0.00 | 0.00 | 0.00 | 76 | 1018.6 |
| 20260901004139 | 0 | 0.0 | 0.0 | 0.00 | 0.00 | 0.00 | 1018.6 | ||
| 20260901003635 | 0 | 0.0 | 0.0 | 0.00 | 0.00 | 0.00 | 1018.6 | ||
| 20260901003133 | 0 | 0.0 | 0.0 | 0.00 | 0.00 | 0.00 | 1018.6 | ||
| 20260901002628 | 0 | 0.0 | 0.0 | 0.00 | 0.00 | 0.00 | 1018.3 | ||
| 20260901002122 | 0 | 0.0 | 0.0 | 0.00 | 0.00 | 0.00 | 1018.4 | ||
| 20260901001617 | 0 | 0.0 | 0.0 | 0.00 | 0.00 | 0.00 | 1018.5 | ||
| 20260901001112 | 0 | 0.0 | 0.0 | 0.00 | 0.00 | 0.00 | 1018.4 | ||
| 20260901000607 | 0 | 0.0 | 0.0 | 0.00 | 0.00 | 0.00 | 1018.7 | ||
| 20260901000058 | 95 | 156 | 1.7 | 1.7 | 0.00 | 0.00 | 0.00 | 77 | 1018.4 |
| 20260831235551 | 95 | 156 | 1.7 | 1.7 | 0.00 | 0.00 | 0.00 | 77 | 1018.4 |
| 20260831235047 | 95 | 156 | 1.7 | 1.7 | 0.00 | 0.00 | 0.00 | 77 | 1018.5 |
| 20260831234540 | 95 | 156 | 1.7 | 1.7 | 0.00 | 0.00 | 0.00 | 77 | 1018.8 |
| 20260831234036 | 95 | 156 | 1.7 | 1.7 | 0.00 | 0.00 | 0.00 | 77 | 1018.3 |
| 20260831233531 | 95 | 156 | 1.7 | 1.7 | 0.00 | 0.00 | 0.00 | 77 | 1018.5 |
| 20260831233027 | 95 | 156 | 1.7 | 1.7 | 0.00 | 0.00 | 0.00 | 77 | 1018.4 |
| 20260831232522 | 95 | 156 | 1.7 | 1.7 | 0.00 | 0.00 | 0.00 | 77 | 1018.5 |
| 20260831232018 | 95 | 156 | 1.7 | 1.7 | 0.00 | 0.00 | 0.00 | 77 | 1018.3 |
| 20260831231514 | 95 | 156 | 1.7 | 1.7 | 0.00 | 0.00 | 0.00 | 77 | 1018.3 |
| 20260831231009 | 95 | 156 | 1.7 | 1.7 | 0.00 | 0.00 | 0.00 | 77 | 1018.3 |
| 20260831230505 | 95 | 156 | 1.7 | 1.7 | 0.00 | 0.00 | 0.00 | 77 | 1018.4 |
| 20260831225959 | 96 | 125 | 1.7 | 2.6 | 0.00 | 0.00 | 0.00 | 77 | 1018.7 |
| 20260831225455 | 95 | 120 | 2.6 | 2.6 | 0.00 | 0.00 | 0.00 | 77 | 1018.5 |
| 20260831224954 | 95 | 99 | 1.7 | 3.5 | 0.00 | 0.00 | 0.00 | 77 | 1018.6 |
| 20260831224449 | 95 | 109 | 3.5 | 4.3 | 0.00 | 0.00 | 0.00 | 77 | 1018.5 |
| 20260831223944 | 96 | 132 | 3.5 | 3.5 | 0.00 | 0.00 | 0.00 | 77 | 1018.6 |
| 20260831223439 | 95 | 135 | 2.6 | 3.5 | 0.00 | 0.00 | 0.00 | 77 | 1018.6 |
| 20260831222936 | 95 | 142 | 1.7 | 5.2 | 0.00 | 0.00 | 0.00 | 77 | 1018.9 |
| 20260831222431 | 96 | 111 | 5.2 | 5.2 | 0.00 | 0.00 | 0.00 | 77 | 1018.7 |
| 20260831221926 | 96 | 105 | 0.9 | 0.9 | 0.00 | 0.00 | 0.00 | 77 | 1018.8 |
| 20260831221422 | 95 | 128 | 1.7 | 2.6 | 0.00 | 0.00 | 0.00 | 77 | 1018.8 |
| 20260831220917 | 96 | 140 | 0.0 | 1.7 | 0.00 | 0.00 | 0.00 | 77 | 1018.7 |
| 20260831220412 | 96 | 140 | 0.0 | 1.7 | 0.00 | 0.00 | 0.00 | 77 | 1018.6 |
| 20260831215907 | 95 | 90 | 2.6 | 2.6 | 0.00 | 0.00 | 0.00 | 77 | 1018.9 |
| 20260831215403 | 95 | 144 | 2.6 | 2.6 | 0.00 | 0.00 | 0.00 | 77 | 1018.8 |
| 20260831214859 | 95 | 144 | 2.6 | 2.6 | 0.00 | 0.00 | 0.00 | 77 | 1018.8 |
| 20260831214356 | 95 | 144 | 2.6 | 2.6 | 0.00 | 0.00 | 0.00 | 77 | 1018.8 |
| 20260831213852 | 95 | 126 | 4.3 | 4.3 | 0.00 | 0.00 | 0.00 | 77 | 1018.9 |
| 20260831213348 | 96 | 121 | 1.7 | 3.5 | 0.00 | 0.00 | 0.00 | 77 | 1019.1 |
| 20260831212843 | 96 | 114 | 3.5 | 3.5 | 0.00 | 0.00 | 0.00 | 77 | 1019.1 |
| 20260831212340 | 95 | 150 | 1.7 | 2.6 | 0.00 | 0.00 | 0.00 | 77 | 1018.9 |
| 20260831211838 | 95 | 110 | 4.3 | 5.2 | 0.00 | 0.00 | 0.00 | 77 | 1019.1 |
| 20260831211334 | 95 | 86 | 2.6 | 2.6 | 0.00 | 0.00 | 0.00 | 77 | 1018.9 |
| 20260831210833 | 95 | 84 | 1.7 | 3.5 | 0.00 | 0.00 | 0.00 | 77 | 1018.9 |
| 20260831210329 | 94 | 98 | 3.5 | 5.2 | 0.00 | 0.00 | 0.00 | 77 | 1019.1 |
| 20260831205829 | 95 | 90 | 2.6 | 7.8 | 0.00 | 0.00 | 0.00 | 77 | 1019.3 |
| 20260831205325 | 96 | 105 | 0.9 | 1.7 | 0.00 | 0.00 | 0.00 | 77 | 1019.2 |
| 20260831204820 | 96 | 197 | 2.6 | 4.3 | 0.00 | 0.00 | 0.00 | 77 | 1019.5 |
| 20260831204319 | 97 | 165 | 1.7 | 2.6 | 0.00 | 0.00 | 0.00 | 77 | 1019.4 |
| 20260831203818 | 95 | 17 | 0.0 | 2.6 | 0.00 | 0.00 | 0.00 | 77 | 1019.5 |
| 20260831203313 | 96 | 243 | 2.6 | 6.1 | 0.00 | 0.00 | 0.00 | 77 | 1019.7 |
| 20260831202811 | 95 | 243 | 4.3 | 7.8 | 0.00 | 0.00 | 0.00 | 77 | 1019.6 |
| 20260831202306 | 97 | 194 | 0.9 | 4.3 | 0.00 | 0.00 | 0.00 | 77 | 1019.6 |
| 20260831201800 | 96 | 216 | 0.0 | 2.6 | 0.00 | 0.00 | 0.00 | 77 | 1019.8 |
| 20260831201259 | 96 | 180 | 0.9 | 4.3 | 0.00 | 0.00 | 0.00 | 77 | 1020.0 |
| 20260831200755 | 96 | 129 | 1.7 | 2.6 | 0.00 | 0.00 | 0.00 | 77 | 1019.8 |
| 20260831200250 | 95 | 126 | 1.7 | 4.3 | 0.00 | 0.00 | 0.00 | 77 | 1020.0 |
| 20260831195745 | 96 | 183 | 2.6 | 7.0 | 0.00 | 0.00 | 0.00 | 77 | 1020.0 |
| 20260831195241 | 96 | 0 | 1.7 | 1.7 | 0.00 | 0.00 | 0.00 | 77 | 1020.1 |
| 20260831194736 | 95 | 297 | 1.7 | 4.3 | 0.00 | 0.00 | 0.00 | 77 | 1020.2 |
| 20260831194232 | 95 | 255 | 2.6 | 3.5 | 0.00 | 0.00 | 0.00 | 77 | 1020.3 |
| 20260831193725 | 95 | 246 | 0.9 | 3.5 | 0.00 | 0.00 | 0.00 | 77 | 1020.3 |
| 20260831193221 | 93 | 246 | 2.6 | 4.3 | 0.00 | 0.00 | 0.00 | 77 | 1020.1 |
| 20260831192716 | 95 | 267 | 6.1 | 8.7 | 0.00 | 0.00 | 0.00 | 77 | 1020.4 |
| 20260831192211 | 94 | 240 | 4.3 | 8.7 | 0.00 | 0.00 | 0.00 | 77 | 1020.4 |
| 20260831191707 | 96 | 245 | 1.7 | 6.1 | 0.00 | 0.00 | 0.00 | 77 | 1020.4 |
| 20260831191203 | 94 | 274 | 4.3 | 5.2 | 0.00 | 0.00 | 0.00 | 77 | 1020.5 |
| 20260831190657 | 94 | 206 | 2.6 | 4.3 | 0.00 | 0.00 | 0.00 | 77 | 1020.7 |
| 20260831190157 | 94 | 203 | 4.3 | 6.1 | 0.00 | 0.00 | 0.00 | 77 | 1020.4 |
| 20260831185652 | 95 | 185 | 2.6 | 7.0 | 0.00 | 0.00 | 0.00 | 77 | 1020.4 |
| 20260831185148 | 93 | 197 | 5.2 | 8.7 | 0.00 | 0.00 | 0.00 | 77 | 1020.7 |
| 20260831184647 | 93 | 207 | 4.3 | 7.8 | 0.00 | 0.00 | 0.00 | 77 | 1020.8 |
| 20260831184143 | 94 | 219 | 3.5 | 7.8 | 0.00 | 0.00 | 0.00 | 77 | 1020.7 |
| 20260831183643 | 93 | 197 | 1.7 | 8.7 | 0.00 | 0.00 | 0.00 | 77 | 1020.8 |
| 20260831183142 | 93 | 237 | 3.5 | 5.2 | 0.00 | 0.00 | 0.00 | 77 | 1021.0 |
| 20260831182641 | 93 | 214 | 5.2 | 7.8 | 0.00 | 0.00 | 0.00 | 77 | 1021.0 |
| 20260831182137 | 93 | 246 | 2.6 | 7.8 | 0.00 | 0.00 | 0.00 | 77 | 1020.9 |
| 20260831181632 | 93 | 257 | 4.3 | 7.8 | 0.00 | 0.00 | 0.00 | 77 | 1021.2 |
| 20260831181131 | 93 | 199 | 3.5 | 7.8 | 0.00 | 0.00 | 0.00 | 77 | 1021.3 |
| 20260831180627 | 93 | 196 | 5.2 | 9.6 | 0.00 | 0.00 | 0.00 | 77 | 1021.2 |
| 20260831180122 | 92 | 197 | 2.6 | 5.2 | 0.00 | 0.00 | 0.00 | 77 | 1021.3 |
| 20260831175616 | 93 | 194 | 2.6 | 8.7 | 0.00 | 0.00 | 0.00 | 77 | 1021.3 |
| 20260831175114 | 92 | 218 | 5.2 | 11.3 | 0.00 | 0.00 | 0.00 | 77 | 1021.2 |
| 20260831174613 | 92 | 185 | 2.6 | 9.6 | 0.00 | 0.00 | 0.00 | 77 | 1021.4 |
| 20260831174108 | 91 | 201 | 3.5 | 10.4 | 0.00 | 0.00 | 0.00 | 76 | 1021.3 |
| 20260831173606 | 92 | 194 | 2.6 | 6.1 | 0.00 | 0.00 | 0.00 | 77 | 1021.3 |
| 20260831173103 | 91 | 259 | 1.7 | 8.7 | 0.00 | 0.00 | 0.00 | 77 | 1021.4 |
| 20260831172602 | 91 | 196 | 8.7 | 11.3 | 0.00 | 0.00 | 0.00 | 76 | 1021.2 |
| 20260831172057 | 91 | 191 | 4.3 | 9.6 | 0.00 | 0.00 | 0.00 | 76 | 1021.5 |
| 20260831171553 | 91 | 215 | 5.2 | 9.6 | 0.00 | 0.00 | 0.00 | 76 | 1021.5 |
| 20260831171050 | 91 | 275 | 1.7 | 8.7 | 0.00 | 0.00 | 0.00 | 76 | 1021.4 |
| 20260831170546 | 91 | 249 | 7.8 | 9.6 | 0.00 | 0.00 | 0.00 | 76 | 1021.5 |
| 20260831170044 | 90 | 200 | 7.8 | 11.3 | 0.00 | 0.00 | 0.00 | 76 | 1021.8 |
| 20260831165543 | 90 | 215 | 2.6 | 13.0 | 0.00 | 0.00 | 0.00 | 76 | 1021.7 |
| 20260831165040 | 91 | 334 | 1.7 | 8.7 | 0.00 | 0.00 | 0.00 | 76 | 1021.7 |